Regional Weather Roundup
Issued by NWS

Home | Current Version | Previous Version | Text Only | Print | Product List | Glossary On
Versions: 1 2 3 4 5 6 7 8 9 10 11 12 13 14 15 16 17 18 19 20 21 22 23 24 25 26 27 28 29 30 31 32 33 34 35 36 37 38 39 40 41 42 43 44 45 46 47 48 49
613
ASUS46 KSEW 071210
RWRWA

WASHINGTON REGIONAL WEATHER ROUNDUP
NATIONAL WEATHER SERVICE SEATTLE WA
400 AM PST SUN FEB 07 2016

NOTE:"FAIR" INDICATES FEW OR NO CLOUDS BELOW 12,000 FEET WITH NO
SIGNIFICANT WEATHER AND/OR OBSTRUCTIONS TO VISIBILITY.

WAZ505-507>509-071300-
SEATTLE, TACOMA, EVERETT, AND VICINITY

CITY           SKY/WX    TMP DP  RH WIND       PRES   REMARKS
EVERETT        CLOUDY    38  33  82 E8        30.52S
6HR MIN TEMP:  38; 6HR MAX TEMP:  41;

BOEING FIELD   CLOUDY    37  36  96 CALM      30.54S
6HR MIN TEMP:  35; 6HR MAX TEMP:  39; 6HR PCP: TRACE;

RENTON         CLOUDY    38  34  85 S3        30.54S
6HR MIN TEMP:  37; 6HR MAX TEMP:  40;

SEATAC AIRPORT MOCLDY    39  34  82 E6        30.52F
6HR MIN TEMP:  36; 6HR MAX TEMP:  42;

JBLM-MCCHORD   FOG       30  30 100 CALM      30.53S VSB 1/2
6HR MIN TEMP:  29; 6HR MAX TEMP:  36;

PUYALLUP       MOCLDY    32  32 100 CALM      30.51F
BREMERTON      MOCLDY    30  30 100 CALM      30.57R
6HR MIN TEMP:  30; 6HR MAX TEMP:  37;

JBLM-FT LEWIS  MOCLDY    32  32 100 MISG      30.53R
6HR MIN TEMP:  30; 6HR MAX TEMP:  36;

TACOMA NARROWS FOG       36  36 100 N3        30.53S VSB 3/4
6HR MIN TEMP:  36; 6HR MAX TEMP:  42;

$$

WAZ001-503-506-510-514-515-071300-
NORTH INTERIOR

CITY           SKY/WX    TMP DP  RH WIND       PRES   REMARKS
BELLINGHAM     CLEAR     34  32  92 CALM      30.54S
6HR MIN TEMP:  33; 6HR MAX TEMP:  38;

FRIDAY HARBOR  PTCLDY    38  36  92 CALM      30.54F
6HR MIN TEMP:  35; 6HR MAX TEMP:  41;

EASTSOUND      PTCLDY    39  37  93 CALM      30.52F
PORT ANGELES   PTCLDY    35  33  92 SE5       30.50F
6HR MIN TEMP:  35; 6HR MAX TEMP:  40;

EDIZ HOOK      FAIR      41  37  83 SE6       30.52F
6HR MIN TEMP:  40; 6HR MAX TEMP:  42;

PORT TOWNSEND  CLOUDY    34  34 100 CALM      30.54F FOG
NAS WHIDBEY    MOCLDY    36  35  96 CALM      30.57F
6HR MIN TEMP:  36; 6HR MAX TEMP:  40;

ARLINGTON      CLEAR     30  25  80 CALM      30.56F
6HR MIN TEMP:  28; 6HR MAX TEMP:  34;

BURLINGTON     PTCLDY    41  36  81 NE9G17    30.54F
$$

WAZ020-022-039-040-504-511-512-071300-
SOUTHWEST INTERIOR

CITY           SKY/WX    TMP DP  RH WIND       PRES   REMARKS
SHELTON        FOG       36  34  92 NE6       30.50F VSB 1/2
6HR MIN TEMP:  31; 6HR MAX TEMP:  37;

OLYMPIA        FOG       38  37  97 E5        30.52S VSB 1/2
6HR MIN TEMP:  35; 6HR MAX TEMP:  39;

CHEHALIS       FOG       37  37 100 CALM      30.52S VSB 1/2
KELSO          CLOUDY    39  36  87 CALM      30.54S
6HR MIN TEMP:  36; 6HR MAX TEMP:  41;

VANCOUVER      CLOUDY    44  41  89 CALM      30.51R
6HR MIN TEMP:  43; 6HR MAX TEMP:  45;

SCAPPOOSE, OR  CLOUDY    42  40  92 CALM      30.51R
6HR MIN TEMP:  38; 6HR MAX TEMP:  42;

PORTLAND, OR   CLOUDY    45  41  86 CALM      30.51S
6HR MIN TEMP:  44; 6HR MAX TEMP:  45;

$$

WAZ021-516-517-071300-
WASHINGTON COAST

CITY           SKY/WX    TMP DP  RH WIND       PRES   REMARKS
FORKS          LGT RAIN  41  36  82 E7        30.44F
6HR MIN TEMP:  40; 6HR MAX TEMP:  41; 6HR PCP: TRACE;

HOQUIAM        CLOUDY    43  41  93 E12       30.47S
6HR MIN TEMP:  42; 6HR MAX TEMP:  44;

ASTORIA, OR    CLOUDY    44  41  89 E12       30.44F
6HR MIN TEMP:  39; 6HR MAX TEMP:  44;

$$

WAZ019-023-024-040-518-519-071300-
CASCADE MOUNTAINS AND COLUMBIA GORGE

CITY           SKY/WX    TMP DP  RH WIND       PRES   REMARKS
STAMPEDE PASS  NOT AVBL
TROUTDALE, OR  CLOUDY    45  37  73 E10       30.51S
6HR MIN TEMP:  45; 6HR MAX TEMP:  48;

THE DALLES, OR CLOUDY    37  33  85 E3        30.56R
6HR MIN TEMP:  35; 6HR MAX TEMP:  43;

$$

WAZ026-027-041>044-520-521-071300-
EAST SLOPES

CITY           SKY/WX    TMP DP  RH WIND       PRES   REMARKS
OMAK           CLEAR     24  20  84 N3        30.57R
6HR MIN TEMP:  19; 6HR MAX TEMP:  27;

WENATCHEE      MOCLDY    31  27  85 NE3       30.55S
6HR MIN TEMP:  30; 6HR MAX TEMP:  36;

ELLENSBURG     CLEAR     25  19  78 MISG      30.54R
6HR MIN TEMP:  24; 6HR MAX TEMP:  32;

YAKIMA         CLEAR     33  23  66 W7        30.56R
6HR MIN TEMP:  30; 6HR MAX TEMP:  37;

$$

WAZ028-034-035-071300-
COLUMBIA BASIN

CITY           SKY/WX    TMP DP  RH WIND       PRES   REMARKS
EPHRATA        CLEAR     30  26  85 N6        30.54R
6HR MIN TEMP:  28; 6HR MAX TEMP:  35;

MOSES LAKE     CLEAR     27  25  92 N7        30.56R
6HR MIN TEMP:  27; 6HR MAX TEMP:  31;

PASCO          CLEAR     26  24  92 N3        30.57R
6HR MIN TEMP:  26; 6HR MAX TEMP:  34;

HERMISTON, OR  CLEAR     30  28  92 CALM      30.53R
6HR MIN TEMP:  30; 6HR MAX TEMP:  41;

$$

WAZ036>038-071300-
NORTHEAST WASHINGTON

CITY           SKY/WX    TMP DP  RH WIND       PRES   REMARKS
SPOKANE GEIGER FOG       28  27  96 NE3       30.51R VSB 1/4
6HR MIN TEMP:  27; 6HR MAX TEMP:  32;

SPOKANE FELTS  PTCLDY    27  25  92 CALM      30.54S
6HR MIN TEMP:  26; 6HR MAX TEMP:  32;

FAIRCHILD AFB  PTCLDY    28  28  99 NE6       30.50R
6HR MIN TEMP:  28; 6HR MAX TEMP:  30;

COEURDALENE,ID PTCLDY    27  23  86 E6        30.50R
6HR MIN TEMP:  27; 6HR MAX TEMP:  32;

DEER PARK      CLEAR     19  17  92 NW5       30.53R
6HR MIN TEMP:  19; 6HR MAX TEMP:  25;

$$

WAZ029>033-071300-
SOUTHEAST WASHINGTON

CITY           SKY/WX    TMP DP  RH WIND       PRES   REMARKS
PULLMAN        CLEAR     31  27  85 NE3       30.51R
6HR MIN TEMP:  30; 6HR MAX TEMP:  34;

LEWISTON, ID   CLEAR     32  27  81 NE5       30.54R
6HR MIN TEMP:  30; 6HR MAX TEMP:  40;

WALLA WALLA    CLEAR     37  26  64 CALM      30.51R
6HR MIN TEMP:  33; 6HR MAX TEMP:  40;

PENDLETON, OR  CLEAR     31  27  85 E5        30.50R
6HR MIN TEMP:  31; 6HR MAX TEMP:  38;

$$




USA.gov is the U.S. government's official web portal to all federal, state and local government web resources and services.